PO-101 (43678 NORAD) Tracking and Keplerian Element Data

This shows tracking and keplerian element data for the satellite.

Feedback or suggestion? Click here.




ElementValue
Catalog43678
NamePO-101
Epoch Orbit4331
Epoch Day227.83576478
Epoch Year2019
RAAN341.8497
Inclination97.8575
Eccentricity0.0011256
Argument of Perigee108.2264
Mean Anonmoly252.0176
Mean Motion14.91567603
Decay Rate2.92E-06
L11 43678U 18084H 19227.83576478 .00000292 00000-0 34833-4 0 9996
L22 43678 97.8575 341.8497 0011256 108.2264 252.0176 14.91567603 43311

Live tracking and technical data element details for PO-101 (NORAD 43678). PO-101 can be tracked NOW for your location showing map with azimuth and elevation plus other details from your city location.

Track the satellite on the map from your city or location and see movement details for azimuth, elevation, latitude, longitude, range, height, and movement on the map or in text.







IsCatalogInMostPopularTable: catalog: 43678, numindb: 140
Update: records affected: 1



GetName: 43678 PO-101

Hit Count: updated at: Tue, 20 Aug 2019 18:14:22 GMT